If you wish to contribute or participate in the discussions about articles you are invited to join SKYbrary as a registered user

 Actions

Arctic Village Airport

From SKYbrary Wiki

PARC
Airport
ICAO: PARC – IATA: ARC
Summary
Name Arctic Village Airport
Region North America
Territory Alaska US.gif
Location , Alaska
Serving Arctic Village
Elevation 637.642 m
2,092 ft
2,092 ft637.642 m
Type medium airport
Coordinates 68° 6' 52.92" N, 145° 34' 44.40" W
Runways
Designator Length Width Surface ROPS
2/20 1372 m4,501.312 ft
23 m75.459 ft
GVL /


METAR
Observation PARC 231256Z AUTO 32010KT 10SM OVC080 M02/M12 A2956 RMK AO2 SLP055 T10221117 FZRANO
Station Arctic Village, Arctic Village Airport
Date/Time 23 April 2019 12:56:00
Wind direction 320°
Wind speed 10 kts
Lowest cloud amount overcast
Temperature
Dew point
Humidity 48%
QNH hPa
Weather condition n/a